EAG5512 SBCX-SBSP

Flight info

Callsign EAG5512
Flight time 1h 5m
Altitude 37000
Route ANLER UM540 ANISE
Aircraft B738/M-SDE2E3FGHIRWXY/LB1

Departure

Time 2026-04-20 23:15
Airport Hugo Cantergiani Regional Airport (SBCX)

Arrival

Time 2026-04-21 00:21
Airport Congonhas–Deputado Freitas Nobre Airport (SBSP)
Time Latitude Longitude Altitude Speed Heading
2026-04-20 22:55 -29.19514 -51.18758 2468 ft 0 kts 44°
2026-04-20 23:08 -29.19525 -51.18770 2463 ft 3 kts 43°
2026-04-20 23:09 -29.19546 -51.18786 2467 ft 4 kts 359°
2026-04-20 23:09 -29.19565 -51.18774 2466 ft 4 kts 302°
2026-04-20 23:09 -29.19578 -51.18747 2465 ft 4 kts 301°
2026-04-20 23:09 -29.19587 -51.18733 2465 ft 2 kts 317°
2026-04-20 23:11 -29.19580 -51.18743 2468 ft 3 kts 304°
2026-04-20 23:12 -29.19582 -51.18792 2466 ft 9 kts 245°
2026-04-20 23:12 -29.19610 -51.18861 2465 ft 11 kts 285°
2026-04-20 23:12 -29.19566 -51.18928 2467 ft 10 kts 315°
2026-04-20 23:12 -29.19532 -51.18966 2472 ft 10 kts 315°
2026-04-20 23:13 -29.19471 -51.19032 2464 ft 17 kts 316°
2026-04-20 23:13 -29.19349 -51.19168 2466 ft 18 kts 315°
2026-04-20 23:13 -29.19288 -51.19235 2467 ft 18 kts 316°
2026-04-20 23:13 -29.19175 -51.19357 2468 ft 15 kts 319°
2026-04-20 23:14 -29.19126 -51.19399 2469 ft 11 kts 320°
2026-04-20 23:14 -29.19118 -51.19424 2469 ft 2 kts 183°
2026-04-20 23:14 -29.19129 -51.19411 2468 ft 3 kts 135°
2026-04-20 23:14 -29.19149 -51.19388 2468 ft 5 kts 134°
2026-04-20 23:15 -29.19246 -51.19281 2466 ft 57 kts 136°
2026-04-20 23:15 -29.19747 -51.18727 2469 ft 139 kts 136°
2026-04-20 23:15 -29.20563 -51.17810 2832 ft 175 kts 134°
2026-04-20 23:15 -29.21384 -51.16833 3933 ft 171 kts 136°
2026-04-20 23:16 -29.22336 -51.15805 4406 ft 206 kts 138°
2026-04-20 23:16 -29.23453 -51.14596 4647 ft 235 kts 137°
2026-04-20 23:16 -29.24682 -51.13252 5003 ft 255 kts 137°
2026-04-20 23:16 -29.26018 -51.11782 5358 ft 275 kts 137°
2026-04-20 23:17 -29.27263 -51.10058 6021 ft 288 kts 116°
2026-04-20 23:17 -29.27630 -51.07826 6893 ft 292 kts 83°
2026-04-20 23:17 -29.26999 -51.05662 7871 ft 288 kts 54°
2026-04-20 23:17 -29.25568 -51.04104 8804 ft 284 kts 27°
2026-04-20 23:18 -29.23816 -51.03054 9662 ft 287 kts 37°
2026-04-20 23:18 -29.22598 -51.01226 10365 ft 299 kts 65°
2026-04-20 23:18 -29.21862 -50.98891 10598 ft 325 kts 70°
2026-04-20 23:18 -29.21152 -50.96364 10794 ft 349 kts 70°
2026-04-20 23:19 -29.20372 -50.93666 11125 ft 362 kts 70°
2026-04-20 23:19 -29.19539 -50.90922 11115 ft 364 kts 69°
2026-04-20 23:19 -29.18679 -50.88208 11119 ft 364 kts 68°
2026-04-20 23:19 -29.17785 -50.85464 11657 ft 369 kts 68°
2026-04-20 23:20 -29.16874 -50.82697 12444 ft 370 kts 68°
2026-04-20 23:20 -29.15967 -50.79957 13150 ft 374 kts 68°
2026-04-20 23:20 -29.15036 -50.77151 13803 ft 379 kts 68°
2026-04-20 23:20 -29.14095 -50.74315 14470 ft 383 kts 67°
2026-04-20 23:21 -29.13289 -50.71380 15104 ft 390 kts 80°
2026-04-20 23:21 -29.13389 -50.68305 15692 ft 396 kts 102°
2026-04-20 23:21 -29.14401 -50.65354 16275 ft 401 kts 118°
2026-04-20 23:21 -29.15791 -50.62558 16846 ft 405 kts 120°
2026-04-20 23:22 -29.17192 -50.59742 17346 ft 409 kts 118°
2026-04-20 23:22 -29.18539 -50.56892 17868 ft 412 kts 118°
2026-04-20 23:22 -29.19738 -50.53915 18377 ft 415 kts 104°
2026-04-20 23:22 -29.19963 -50.50632 18923 ft 414 kts 80°
2026-04-20 23:23 -29.19086 -50.47523 19403 ft 413 kts 59°
2026-04-20 23:23 -29.17473 -50.44784 19900 ft 414 kts 45°
2026-04-20 23:23 -29.15492 -50.42384 20531 ft 415 kts 43°
2026-04-20 23:23 -29.13518 -50.40012 20998 ft 419 kts 44°
2026-04-20 23:24 -29.11502 -50.37570 21373 ft 424 kts 44°
2026-04-20 23:24 -29.09463 -50.35085 21891 ft 428 kts 44°
2026-04-20 23:24 -29.07426 -50.32572 22452 ft 432 kts 44°
2026-04-20 23:24 -29.05368 -50.30030 22946 ft 435 kts 44°
2026-04-20 23:25 -29.03298 -50.27494 23266 ft 440 kts 44°
2026-04-20 23:25 -29.01232 -50.24935 23637 ft 446 kts 45°
2026-04-20 23:25 -28.99132 -50.22323 24091 ft 446 kts 45°
2026-04-20 23:25 -28.97019 -50.19698 24453 ft 450 kts 44°
2026-04-20 23:26 -28.94891 -50.17068 24846 ft 450 kts 45°
2026-04-20 23:26 -28.92758 -50.14406 25128 ft 454 kts 44°
2026-04-20 23:26 -28.90579 -50.11755 25391 ft 459 kts 43°
2026-04-20 23:26 -28.88369 -50.09106 25825 ft 461 kts 45°
2026-04-20 23:27 -28.86213 -50.06431 26281 ft 463 kts 45°
2026-04-20 23:27 -28.84027 -50.03726 26635 ft 464 kts 45°
2026-04-20 23:27 -28.81831 -50.00997 26878 ft 470 kts 45°
2026-04-20 23:27 -28.79608 -49.98252 27211 ft 471 kts 44°
2026-04-20 23:28 -28.77380 -49.95536 27498 ft 473 kts 45°
2026-04-20 23:28 -28.75134 -49.92761 27767 ft 476 kts 45°
2026-04-20 23:28 -28.72877 -49.89978 28054 ft 479 kts 45°
2026-04-20 23:28 -28.70619 -49.87178 28339 ft 481 kts 45°
2026-04-20 23:29 -28.68228 -49.84506 28589 ft 481 kts 37°
2026-04-20 23:29 -28.65544 -49.82229 28923 ft 480 kts 33°
2026-04-20 23:29 -28.62797 -49.80063 29146 ft 482 kts 31°
2026-04-20 23:29 -28.60046 -49.77786 29409 ft 488 kts 35°
2026-04-20 23:30 -28.57372 -49.75492 29767 ft 486 kts 34°
2026-04-20 23:30 -28.54645 -49.73187 29992 ft 491 kts 35°
2026-04-20 23:30 -28.51892 -49.70866 30269 ft 493 kts 34°
2026-04-20 23:30 -28.49130 -49.68555 30512 ft 495 kts 34°
2026-04-20 23:31 -28.46344 -49.66218 30750 ft 497 kts 34°
2026-04-20 23:31 -28.43560 -49.63883 31047 ft 497 kts 34°
2026-04-20 23:31 -28.40784 -49.61559 31394 ft 495 kts 34°
2026-04-20 23:31 -28.38001 -49.59228 31658 ft 497 kts 34°
2026-04-20 23:32 -28.35206 -49.56888 31868 ft 499 kts 34°
2026-04-20 23:32 -28.32439 -49.54573 32150 ft 499 kts 34°
2026-04-20 23:32 -28.29639 -49.52232 32475 ft 499 kts 34°
2026-04-20 23:32 -28.26846 -49.49897 32823 ft 498 kts 33°
2026-04-20 23:33 -28.24039 -49.47553 33007 ft 501 kts 33°
2026-04-20 23:33 -28.21226 -49.45208 33229 ft 502 kts 33°
2026-04-20 23:33 -28.18436 -49.42887 33496 ft 502 kts 33°
2026-04-20 23:33 -28.15612 -49.40541 33785 ft 502 kts 33°
2026-04-20 23:34 -28.12802 -49.38206 34160 ft 500 kts 33°
2026-04-20 23:34 -28.09995 -49.35876 34339 ft 502 kts 33°
2026-04-20 23:34 -28.07168 -49.33525 34470 ft 505 kts 33°
2026-04-20 23:34 -28.04355 -49.31145 34865 ft 502 kts 34°
2026-04-20 23:35 -28.01564 -49.28765 35110 ft 503 kts 34°
2026-04-20 23:35 -27.95959 -49.23992 35445 ft 506 kts 34°
2026-04-20 23:35 -27.93154 -49.21610 35866 ft 502 kts 34°
2026-04-20 23:36 -27.90350 -49.19235 36099 ft 502 kts 34°
2026-04-20 23:36 -27.87535 -49.16860 36266 ft 504 kts 34°
2026-04-20 23:36 -27.84677 -49.14530 36417 ft 506 kts 33°
2026-04-20 23:36 -27.81824 -49.12260 36599 ft 507 kts 32°
2026-04-20 23:37 -27.78938 -49.09975 36928 ft 504 kts 32°
2026-04-20 23:37 -27.76068 -49.07698 37096 ft 505 kts 33°
2026-04-20 23:37 -27.73184 -49.05396 37094 ft 509 kts 33°
2026-04-20 23:38 -27.67393 -49.00713 37079 ft 512 kts 34°
2026-04-20 23:38 -27.61695 -48.95970 37083 ft 511 kts 34°
2026-04-20 23:39 -27.55956 -48.91228 37084 ft 510 kts 34°
2026-04-20 23:39 -27.50217 -48.86511 37094 ft 510 kts 34°
2026-04-20 23:40 -27.44506 -48.81819 37082 ft 509 kts 34°
2026-04-20 23:40 -27.38772 -48.77109 37083 ft 509 kts 34°
2026-04-20 23:41 -27.33040 -48.72405 37080 ft 509 kts 34°
2026-04-20 23:41 -27.27352 -48.67745 37084 ft 509 kts 34°
2026-04-20 23:42 -27.21640 -48.63007 37092 ft 508 kts 35°
2026-04-20 23:42 -27.15952 -48.58275 37089 ft 508 kts 34°
2026-04-20 23:43 -27.10233 -48.53657 37100 ft 508 kts 34°
2026-04-20 23:43 -27.04492 -48.49027 37100 ft 508 kts 34°
2026-04-20 23:44 -26.98783 -48.44416 37097 ft 507 kts 34°
2026-04-20 23:44 -26.93068 -48.39806 37106 ft 507 kts 34°
2026-04-20 23:45 -26.87333 -48.35186 37103 ft 507 kts 34°
2026-04-20 23:45 -26.81604 -48.30577 37100 ft 507 kts 34°
2026-04-20 23:46 -26.75865 -48.25965 37096 ft 506 kts 34°
2026-04-20 23:46 -26.70173 -48.21396 37103 ft 506 kts 34°
2026-04-20 23:47 -26.64442 -48.16786 37098 ft 506 kts 34°
2026-04-20 23:47 -26.58761 -48.12214 37096 ft 505 kts 35°
2026-04-20 23:48 -26.53040 -48.07617 37092 ft 505 kts 35°
2026-04-20 23:48 -26.47328 -48.03035 37102 ft 505 kts 35°
2026-04-20 23:49 -26.41651 -47.98485 37085 ft 504 kts 35°
2026-04-20 23:49 -26.35949 -47.93921 37099 ft 504 kts 35°
2026-04-20 23:50 -26.30240 -47.89355 37090 ft 504 kts 35°
2026-04-20 23:50 -26.24563 -47.84816 37098 ft 504 kts 35°
2026-04-20 23:51 -26.18856 -47.80254 37082 ft 504 kts 35°
2026-04-20 23:51 -26.13156 -47.75704 37101 ft 504 kts 35°
2026-04-20 23:52 -26.07489 -47.71198 37113 ft 504 kts 35°
2026-04-20 23:52 -26.01768 -47.66661 37112 ft 504 kts 35°
2026-04-20 23:53 -25.96052 -47.62131 37114 ft 504 kts 35°
2026-04-20 23:53 -25.90370 -47.57632 37105 ft 504 kts 35°
2026-04-20 23:54 -25.84644 -47.53104 37109 ft 504 kts 35°
2026-04-20 23:54 -25.78921 -47.48591 37108 ft 504 kts 35°
2026-04-20 23:55 -25.73227 -47.44108 37108 ft 504 kts 35°
2026-04-20 23:55 -25.67503 -47.39597 37108 ft 505 kts 35°
2026-04-20 23:56 -25.61760 -47.35075 37116 ft 505 kts 35°
2026-04-20 23:56 -25.56060 -47.30592 37108 ft 505 kts 35°
2026-04-20 23:57 -25.50321 -47.26084 37114 ft 505 kts 35°
2026-04-20 23:57 -25.44607 -47.21602 37109 ft 505 kts 35°
2026-04-20 23:58 -25.38857 -47.17096 37104 ft 506 kts 35°
2026-04-20 23:58 -25.33094 -47.12586 37075 ft 506 kts 35°
2026-04-20 23:59 -25.27367 -47.08108 37076 ft 506 kts 35°
2026-04-20 23:59 -25.22589 -47.04374 36749 ft 507 kts 36°
2026-04-20 23:59 -25.18789 -47.01405 36005 ft 502 kts 36°
2026-04-21 00:00 -25.15932 -46.99178 35289 ft 503 kts 36°
2026-04-21 00:00 -25.14021 -46.97705 34803 ft 504 kts 34°
2026-04-21 00:00 -25.11061 -46.95618 34009 ft 506 kts 32°
2026-04-21 00:00 -25.08026 -46.93622 33243 ft 507 kts 30°
2026-04-21 00:01 -25.04958 -46.91661 32452 ft 508 kts 30°
2026-04-21 00:01 -25.01892 -46.89707 31627 ft 509 kts 30°
2026-04-21 00:01 -24.98856 -46.87756 30873 ft 508 kts 30°
2026-04-21 00:01 -24.95830 -46.85793 30298 ft 502 kts 30°
2026-04-21 00:02 -24.92829 -46.83832 29695 ft 496 kts 30°
2026-04-21 00:02 -24.89906 -46.81916 29095 ft 491 kts 30°
2026-04-21 00:02 -24.86991 -46.80003 28484 ft 485 kts 30°
2026-04-21 00:02 -24.84095 -46.78106 27882 ft 480 kts 30°
2026-04-21 00:03 -24.81231 -46.76232 27280 ft 475 kts 30°
2026-04-21 00:03 -24.78403 -46.74383 26677 ft 470 kts 30°
2026-04-21 00:03 -24.75600 -46.72552 26084 ft 465 kts 31°
2026-04-21 00:03 -24.72862 -46.70763 25498 ft 461 kts 31°
2026-04-21 00:04 -24.70114 -46.68970 24902 ft 456 kts 31°
2026-04-21 00:04 -24.67382 -46.67185 24300 ft 452 kts 31°
2026-04-21 00:04 -24.64718 -46.65449 23738 ft 448 kts 31°
2026-04-21 00:04 -24.62039 -46.63722 23154 ft 443 kts 28°
2026-04-21 00:05 -24.59157 -46.62566 22558 ft 440 kts
2026-04-21 00:05 -24.56120 -46.62359 22017 ft 434 kts 359°
2026-04-21 00:05 -24.53107 -46.62416 21452 ft 431 kts 358°
2026-04-21 00:05 -24.50147 -46.62486 20892 ft 428 kts 359°
2026-04-21 00:06 -24.47178 -46.62534 20359 ft 424 kts 359°
2026-04-21 00:06 -24.44233 -46.62556 19790 ft 421 kts 360°
2026-04-21 00:06 -24.41306 -46.62565 19254 ft 418 kts 360°
2026-04-21 00:06 -24.38441 -46.62570 18704 ft 415 kts
2026-04-21 00:07 -24.35559 -46.62571 18154 ft 412 kts
2026-04-21 00:07 -24.32698 -46.62572 17612 ft 409 kts
2026-04-21 00:07 -24.29863 -46.62573 17081 ft 406 kts
2026-04-21 00:07 -24.27074 -46.62574 16550 ft 404 kts
2026-04-21 00:08 -24.24269 -46.62576 16019 ft 401 kts
2026-04-21 00:08 -24.21479 -46.62578 15487 ft 398 kts
2026-04-21 00:08 -24.18716 -46.62580 14961 ft 395 kts
2026-04-21 00:08 -24.15976 -46.62583 14438 ft 392 kts 360°
2026-04-21 00:09 -24.13250 -46.62585 13917 ft 389 kts 360°
2026-04-21 00:09 -24.10584 -46.62587 13408 ft 385 kts 360°
2026-04-21 00:09 -24.07905 -46.62588 12904 ft 382 kts 360°
2026-04-21 00:09 -24.05252 -46.62590 12390 ft 379 kts 360°
2026-04-21 00:10 -24.02612 -46.62591 11894 ft 376 kts 360°
2026-04-21 00:10 -23.99997 -46.62592 11377 ft 373 kts 360°
2026-04-21 00:10 -23.97445 -46.62593 10980 ft 368 kts 360°
2026-04-21 00:10 -23.94926 -46.62594 10827 ft 355 kts 360°
2026-04-21 00:11 -23.92489 -46.62596 10663 ft 343 kts 360°
2026-04-21 00:11 -23.90137 -46.62598 10534 ft 332 kts 360°
2026-04-21 00:11 -23.87885 -46.62600 10401 ft 321 kts 360°
2026-04-21 00:11 -23.85697 -46.62813 10253 ft 311 kts 342°
2026-04-21 00:12 -23.83781 -46.63794 10179 ft 299 kts 328°
2026-04-21 00:12 -23.82037 -46.65013 9888 ft 296 kts 325°
2026-04-21 00:12 -23.80320 -46.66252 9596 ft 294 kts 326°
2026-04-21 00:12 -23.78637 -46.67448 9316 ft 291 kts 326°
2026-04-21 00:13 -23.76943 -46.68638 9212 ft 286 kts 326°
2026-04-21 00:13 -23.75278 -46.69800 9189 ft 282 kts 326°
2026-04-21 00:13 -23.73620 -46.70954 9197 ft 283 kts 326°
2026-04-21 00:13 -23.71944 -46.72119 9199 ft 288 kts 327°
2026-04-21 00:14 -23.70222 -46.73313 8854 ft 295 kts 327°
2026-04-21 00:14 -23.68513 -46.74497 8535 ft 294 kts 327°
2026-04-21 00:14 -23.66771 -46.75704 8063 ft 298 kts 327°
2026-04-21 00:14 -23.65044 -46.76900 7886 ft 286 kts 327°
2026-04-21 00:15 -23.63411 -46.78032 7767 ft 267 kts 327°
2026-04-21 00:15 -23.61901 -46.79078 7642 ft 248 kts 327°
2026-04-21 00:15 -23.60497 -46.80050 7501 ft 231 kts 327°
2026-04-21 00:15 -23.59169 -46.80970 7389 ft 219 kts 327°
2026-04-21 00:16 -23.57852 -46.81720 7193 ft 211 kts 348°
2026-04-21 00:16 -23.56433 -46.81544 6764 ft 213 kts 31°
2026-04-21 00:16 -23.55446 -46.80383 6420 ft 210 kts 60°
2026-04-21 00:16 -23.54672 -46.78963 5710 ft 227 kts 59°
2026-04-21 00:17 -23.53829 -46.77460 5047 ft 236 kts 59°
2026-04-21 00:17 -23.53027 -46.76000 4884 ft 218 kts 64°
2026-04-21 00:17 -23.52735 -46.74498 4787 ft 192 kts 103°
2026-04-21 00:17 -23.53215 -46.73240 4673 ft 173 kts 120°
2026-04-21 00:18 -23.53834 -46.72137 4487 ft 170 kts 123°
2026-04-21 00:18 -23.54677 -46.71246 4287 ft 167 kts 145°
2026-04-21 00:18 -23.55625 -46.70531 4090 ft 161 kts 146°
2026-04-21 00:18 -23.56522 -46.69897 3888 ft 146 kts 146°
2026-04-21 00:19 -23.57359 -46.69316 3685 ft 141 kts 146°
2026-04-21 00:19 -23.58185 -46.68745 3513 ft 140 kts 146°
2026-04-21 00:19 -23.59010 -46.68178 3342 ft 141 kts 148°
2026-04-21 00:19 -23.59842 -46.67603 3153 ft 138 kts 147°
2026-04-21 00:20 -23.60646 -46.67035 2919 ft 137 kts 147°
2026-04-21 00:20 -23.61444 -46.66488 2743 ft 134 kts 147°
2026-04-21 00:20 -23.62228 -46.65949 2609 ft 131 kts 147°
2026-04-21 00:20 -23.62895 -46.65487 2607 ft 87 kts 148°
2026-04-21 00:21 -23.63225 -46.65260 2609 ft 25 kts 147°
2026-04-21 00:21 -23.63330 -46.65204 2607 ft 15 kts 175°
2026-04-21 00:21 -23.63403 -46.65232 2602 ft 10 kts 232°
2026-04-21 00:21 -23.63382 -46.65295 2601 ft 10 kts 326°
2026-04-21 00:22 -23.63324 -46.65336 2601 ft 10 kts 327°
2026-04-21 00:22 -23.63267 -46.65376 2601 ft 10 kts 327°
2026-04-21 00:22 -23.63212 -46.65415 2601 ft 9 kts 328°
2026-04-21 00:22 -23.63157 -46.65451 2601 ft 10 kts 328°
2026-04-21 00:23 -23.63096 -46.65493 2601 ft 10 kts 327°
2026-04-21 00:23 -23.63029 -46.65518 2602 ft 10 kts 353°
2026-04-21 00:23 -23.62979 -46.65538 2602 ft 7 kts 328°
2026-04-21 00:23 -23.62921 -46.65578 2602 ft 7 kts 327°
2026-04-21 00:24 -23.62873 -46.65612 2602 ft 10 kts 327°
2026-04-21 00:24 -23.62848 -46.65655 2601 ft 5 kts 280°
2026-04-21 00:24 -23.62828 -46.65690 2600 ft 7 kts 320°
2026-04-21 00:24 -23.62787 -46.65719 2600 ft 7 kts 328°
2026-04-21 00:25 -23.62775 -46.65727 2600 ft 1 kts 328°
2026-04-21 00:25 -23.62767 -46.65746 2600 ft 1 kts 259°
2026-04-21 00:25 -23.62773 -46.65760 2600 ft 4 kts 243°
2026-04-21 00:25 -23.62781 -46.65775 2600 ft 2 kts 239°
2026-04-21 00:26 -23.62782 -46.65777 2600 ft 0 kts 239°